Location: Kellogg
(38.0159°N, 90.0546°W)
Time: 08:19:40
(UTC+00:00)

Vanguard 1 Rocket - Pass Details

Date: 20 September 2024
Orbit: 650 x 4218 km, 34.3° (Epoch: 05 October)

Event Time Altitude Azimuth Distance (km) Brightness Sun altitude
Rises 11:23:08 0° 271° (W) 5,800 - -5.5°
Exits shadow 11:24:48 - 271° (W) 5,445 10.7 -5.2°
Reaches altitude 10° 11:26:13 10° 270° (W) 5,157 10.6 -4.9°
Maximum altitude 11:43:23 78° 188° (S) 3,723 10.5 -1.5°
Drops below altitude 10° 12:09:46 10° 108° (ESE) 7,371 13.8 3.7°
Sets 12:15:18 0° 107° (ESE) 8,261 14.2 4.8°
